Regional Weather Roundup
Issued by NWS

Home | Current Version | Previous Version | Text Only | Print | Product List | Glossary Off
Versions: 1 2 3 4 5 6 7 8 9 10 11 12 13 14 15 16 17 18 19 20 21 22 23 24 25 26 27 28 29 30 31 32 33 34 35 36 37 38 39 40 41 42 43 44 45 46 47 48 49 50

000
ASUS43 KLOT 182100
RWRIL

ILLINOIS REGIONAL WEATHER ROUNDUP
NATIONAL WEATHER SERVICE CHICAGO/ROMEOVILLE IL
400 PM CDT THU SEP 18 2014

NOTE: "FAIR" INDICATES FEW OR NO CLOUDS BELOW 12,000 FEET WITH NO
SIGNIFICANT WEATHER AND/OR OBSTRUCTIONS TO VISIBILITY.

* THESE STATIONS ARE NOT UNDER NWS QUALITY CONTROL. THEY ALSO MAY NOT
  REPORT WEATHER SUCH AS PRECIPITATION OR FOG.

ILZ001-002-007-009-015-016-024-182200-
NORTHWEST ILLINOIS

CITY           SKY/WX    TMP DP  RH WIND       PRES   REMARKS
MOLINE         SUNNY     73  51  46 E7        30.06F
STERLING*      PTSUNNY   73  54  49 SE9       30.09S
$$

ILZ003-004-008-010-011-017-018-182200-
NORTH CENTRAL ILLINOIS

CITY           SKY/WX    TMP DP  RH WIND       PRES   REMARKS
ROCKFORD       MOSUNNY   71  53  52 E8        30.12F
$$

ILZ005-006-012>014-019>023-182200-
NORTHEAST ILLINOIS

CITY           SKY/WX    TMP DP  RH WIND       PRES   REMARKS
CHICAGO-OHARE  MOSUNNY   68  54  60 E13       30.12S
CHICAGO-MIDWAY MOSUNNY   68  56  65 NE10      30.11F
AURORA         MOSUNNY   72  53  51 E10       30.10F
WAUKEGAN       PTSUNNY   60  53  77 NE8       30.13F
DUPAGE AIRPORT MOSUNNY   71  53  52 E9        30.11S
WHEELING       SUNNY     65  54  67 NE10      30.14F
NORTHERLY ISL    N/A     64  56  75 NE12        N/A
$$

LMZ740>746-182200-
SOUTHERN LAKE MICHIGAN

STATION/POSITION SKY/WX   TEMP    WIND        PRES    VSBY  WAVE
                          AIR SEA DIR/SP/G                  HT/PER
                          (F)     (DEG/KT/KT) (MB)    (MI)  (FT/S)
SOUTHERN BUOY              63 66   30/  2/  2 1020.6F         2/ 7
WAUKEGAN HARBOR            58      20/ 14/ 17   N/A
HARRISON CRIB              60      10/ 12/ 13   N/A
BURNHAM HARBOR             64     360/ 10/ 13   N/A
CALUMET HARBOR             64     350/ 12/ 14 1018.7F
MICHIGAN CITY              63     360/ 14/ 16   N/A
MICHIGAN CITY 6N           63 65   20/ 12/ 14   N/A           2/ 2
ST. JOSEPH                 63 67  360/ 12/ 14   N/A           3/ 2
$$

ILZ025>027-034>036-040-047-049-050-058-095>099-182200-
WEST-CENTRAL ILLINOIS

CITY           SKY/WX    TMP DP  RH WIND       PRES   REMARKS
QUINCY         MOSUNNY   72  51  47 E7        30.04S
$$

ILZ028>032-037-038-041>044-048-051>054-059>061-182200-
CENTRAL ILLINOIS

CITY           SKY/WX    TMP DP  RH WIND       PRES   REMARKS
DECATUR        SUNNY     75  49  39 NE10      30.05F
PEORIA         SUNNY     75  50  41 E5        30.07S
SPRINGFIELD    SUNNY     76  51  41 E9        30.04F
TAYLORVILLE    NOT AVBL
$$

ILZ033-039-045-046-055>057-062-063-182200-
EAST-CENTRAL ILLINOIS

CITY           SKY/WX    TMP DP  RH WIND       PRES   REMARKS
CHAMPAIGN      SUNNY     73  46  38 NE8       30.06F
MATTOON        SUNNY     73  46  38 NE8       30.04F
$$

ILZ079-100>102-182200-
SOUTHWEST ILLINOIS

CITY           SKY/WX    TMP DP  RH WIND       PRES   REMARKS
BELLEVILLE     SUNNY     75  55  50 N7        30.01F
CAHOKIA*       SUNNY     75  54  47 SE6       30.01F
$$

ILZ064>066-069>071-074>076-080>082-084>086-088>090-092>094-182200-
SOUTH-CENTRAL ILLINOIS

CITY           SKY/WX    TMP DP  RH WIND       PRES   REMARKS
CARBONDALE     MOSUNNY   75  58  55 E7        30.00F
MARION         MOSUNNY   75  57  53 NE9       30.01F
MT. VERNON     SUNNY     73  54  49 E9        30.03F
$$

ILZ067-068-072-073-078-083-087-091-182200-
SOUTHEAST ILLINOIS

CITY           SKY/WX    TMP DP  RH WIND       PRES   REMARKS
LAWRENCEVILLE  MOSUNNY   75  52  44 E6        30.04F
FLORA*         SUNNY     74  52  45 E10       30.04F
$$

ABBREVIATIONS USED IN REMARKS
   TC - TEMPERATURE IN CELSIUS
  WCI - WIND CHILL INDEX
   HX - HEAT INDEX
  VSB - VISIBILITY
$$




USA.gov is the U.S. government's official web portal to all federal, state and local government web resources and services.